Syracuse, NY

5:55 PM EST on December 13, 2017 (GMT -0500)
Syracuse Hancock International

Weather History for KSYR - November, 2011

Change the Weather History Date:

Monday, November 28, 2011

  Actual Average Record
Temperature  
Mean Temperature 54 °F 36 °F  
Max Temperature 62 °F 43 °F 74 °F (1990)
Min Temperature 45 °F 29 °F 11 °F (1926)
Degree Days  
Heating Degree Days 11 29  
Month to date heating degree days 508 673  
Since 1 July heating degree days 954 1290  
Cooling Degree Days 0 0  
Month to date cooling degree days 0 0  
Year to date cooling degree days 911 569  
Growing Degree Days 3 (Base 50)    
Moisture  
Dew Point 44 °F    
Average Humidity 77    
Maximum Humidity 93    
Minimum Humidity 60    
Precipitation  
Precipitation 0.15 in 0.12 in 1.02 in (1958)
Month to date precipitation 2.80 3.29  
Year to date precipitation 45.00 35.01  
Snow  
Snow 0.00 in 0.60 in 8.80 in (1958)
Month to date snowfall 0.6 8.4  
Since 1 July snowfall 0.6 8.8  
Since 1 September snowfall 0.6 8.8  
Snow Depth 0.00 in    
Sea Level Pressure  
Sea Level Pressure 30.05 in    
Wind  
Wind Speed 6 mph (NW)    
Max Wind Speed 21 mph    
Max Gust Speed 26 mph    
Visibility 8 miles    
Events Fog , Rain    
T = Trace of Precipitation, MM = Missing Value Source: NWS Daily Summary

Daily Weather History Graph

Daily Weather History Graph

Search for Another Location

Airport or City:

Trip Planner

Search our weather history database for the weather conditions in past years. The results will help you decide how hot, cold, wet, or windy it might be!

Date:

Astronomy

Nov. 28, 2011 Rise Set
Actual Time 7:12 AM EST 4:31 PM EST
Civil Twilight 6:41 AM EST 5:03 PM EST
Nautical Twilight 6:05 AM EST 5:38 PM EST
Astronomical Twilight 5:31 AM EST 6:12 PM EST
Moon 10:19 AM EST (11/28) 8:17 PM EST (11/28)
Length of Visible Light 10h 22m
Length of Day
9h 19m
Waxing Crescent, 15% of the Moon is Illuminated
Nov 28
Waxing Crescent
Dec 2
First Quarter
Dec 10
Full
Dec 17
Last Quarter
Dec 24
New

Hourly Weather History & Observations

Time (EST) Temp. Windchill Dew Point Humidity Pressure Visibility Wind Dir Wind Speed Gust Speed Precip Events Conditions
12:54 AM 62.1 °F - 48.0 °F 60% 29.90 in 10.0 mi SW 11.5 mph 18.4 mph N/A   Overcast
1:54 AM 62.1 °F - 48.0 °F 60% 29.92 in 10.0 mi SW 11.5 mph - N/A   Overcast
2:54 AM 62.1 °F - 48.0 °F 60% 29.94 in 10.0 mi WSW 12.7 mph 18.4 mph 0.00 in Rain Light Rain
3:54 AM 61.0 °F - 48.9 °F 64% 29.96 in 10.0 mi WSW 15.0 mph 26.5 mph 0.00 in Rain Light Rain
4:54 AM 57.0 °F - 51.1 °F 81% 29.97 in 10.0 mi NNW 9.2 mph - 0.00 in   Light Drizzle
5:52 AM 53.6 °F - 50.0 °F 88% 30.02 in 5.0 mi NNW 9.2 mph - 0.00 in Rain Light Rain
5:54 AM 53.1 °F - 50.0 °F 89% 30.01 in 5.0 mi NNW 11.5 mph - 0.00 in Rain Light Rain
6:26 AM 50.0 °F - 48.2 °F 94% 30.05 in 6.0 mi NNW 9.2 mph - 0.01 in Rain Light Rain
6:54 AM 48.9 °F - 46.0 °F 90% 30.04 in 9.0 mi NNW 6.9 mph - 0.04 in Rain Light Rain
7:32 AM 48.2 °F - 44.6 °F 87% 30.08 in 10.0 mi NW 12.7 mph - 0.00 in Rain Light Rain
7:54 AM 48.0 °F - 44.1 °F 86% 30.08 in 6.0 mi NW 10.4 mph - 0.02 in   Light Drizzle
8:45 AM 46.4 °F 44.3 °F 44.6 °F 93% 30.11 in 6.0 mi WNW 4.6 mph - 0.05 in   Light Drizzle
8:54 AM 46.9 °F - 44.1 °F 90% 30.11 in 7.0 mi WNW 6.9 mph - 0.06 in   Light Drizzle
9:40 AM 46.4 °F 42.9 °F 42.8 °F 87% 30.13 in 7.0 mi NW 6.9 mph - 0.02 in   Light Drizzle
9:54 AM 46.0 °F 43.1 °F 43.0 °F 89% 30.12 in 7.0 mi North 5.8 mph - 0.03 in   Light Drizzle
10:42 AM 46.4 °F 43.5 °F 42.8 °F 87% 30.14 in 9.0 mi WNW 5.8 mph - 0.00 in   Light Drizzle
10:54 AM 46.0 °F 42.5 °F 42.1 °F 86% 30.13 in 4.0 mi NW 6.9 mph - 0.00 in   Light Drizzle
11:54 AM 46.0 °F - 41.0 °F 83% 30.11 in 10.0 mi Calm Calm - 0.00 in   Overcast
12:54 PM 46.0 °F - 41.0 °F 83% 30.09 in 8.0 mi Calm Calm - 0.00 in   Light Drizzle
1:54 PM 46.9 °F - 42.1 °F 83% 30.08 in 10.0 mi SSW 5.8 mph - 0.00 in   Light Drizzle
2:54 PM 48.0 °F - 43.0 °F 83% 30.06 in 10.0 mi ENE 4.6 mph - 0.00 in   Overcast
3:19 PM 48.2 °F - 44.6 °F 87% 30.07 in 10.0 mi NE 5.8 mph - N/A   Overcast
3:54 PM 46.9 °F - 43.0 °F 86% 30.06 in 10.0 mi NE 5.8 mph - N/A   Overcast
4:14 PM 46.4 °F 42.9 °F 42.8 °F 87% 30.09 in 10.0 mi NNE 6.9 mph - N/A   Overcast
4:54 PM 46.0 °F - 43.0 °F 89% 30.08 in 10.0 mi Calm Calm - N/A   Overcast
5:54 PM 46.9 °F - 43.0 °F 86% 30.09 in 10.0 mi Calm Calm - N/A   Overcast
6:26 PM 46.4 °F - 42.8 °F 87% 30.07 in 10.0 mi Calm Calm - N/A   Overcast
6:54 PM 46.0 °F 44.8 °F 43.0 °F 89% 30.06 in 10.0 mi ENE 3.5 mph - N/A   Overcast
7:16 PM 46.4 °F - 44.6 °F 93% 30.06 in 10.0 mi Calm Calm - N/A   Overcast
7:34 PM 46.4 °F - 42.8 °F 87% 30.07 in 10.0 mi Calm Calm - N/A   Overcast
7:54 PM 45.0 °F 43.5 °F 43.0 °F 93% 30.05 in 10.0 mi NNE 3.5 mph - N/A   Overcast
8:04 PM 44.6 °F - 42.8 °F 93% 30.05 in 9.0 mi Calm Calm - N/A   Overcast
8:50 PM 46.4 °F - 44.6 °F 93% 30.05 in 10.0 mi Calm Calm - N/A   Overcast
8:54 PM 46.0 °F - 44.1 °F 93% 30.04 in 10.0 mi Calm Calm - N/A   Overcast
9:33 PM 46.4 °F - 42.8 °F 87% 30.04 in 8.0 mi Calm Calm - N/A   Overcast
9:54 PM 45.0 °F - 43.0 °F 93% 30.02 in 8.0 mi Calm Calm - N/A Fog Patches of Fog
10:01 PM 44.6 °F - 42.8 °F 93% 30.02 in 9.0 mi Calm Calm - N/A Fog Patches of Fog
10:21 PM 46.4 °F 45.2 °F 44.6 °F 93% 30.02 in 0.5 mi SE 3.5 mph - N/A Fog Patches of Fog
10:54 PM 46.0 °F - 44.1 °F 93% 30.02 in 0.5 mi Calm Calm - N/A   Overcast
11:54 PM 46.0 °F - 44.1 °F 93% 29.99 in 1.5 mi Calm Calm - N/A   Overcast